When you browse on this site, cookies collect data to enhance your experience and personalize the content and advertising you see.
Visit our Privacy Policy to learn more. By continuing to use the site, you agree to this use of cookies and data.
  • en Suisse
  • Liste des pays
  • À 7 jours
  • Température de l'eau
  • Carte satellitaire
  • Carte météo
  • Widgets météo
  • user-avatar
    Se connecter

    Météo par heure à Gifhorn

    Ce jour, 18 Juillet, Jeudi

    Heure Température Précipitation Vent Pression Humidité
    00:00 +15°C° 0 mm 1 m/s 755 mmHg 90%
    01:00 +14°C° 0 mm 1 m/s 755 mmHg 92%
    02:00 +14°C° 0 mm 1 m/s 755 mmHg 93%
    03:00 +14°C° 0 mm 1 m/s 755 mmHg 93%
    04:00 +13°C° 0 mm 1 m/s 755 mmHg 94%
    05:00 +15°C° 0 mm 1 m/s 754 mmHg 89%
    06:00 +15°C° 0 mm 0 m/s 754 mmHg 85%
    07:00 +17°C° 0 mm 0 m/s 754 mmHg 80%
    08:00 +20°C° 0 mm 1 m/s 754 mmHg 72%
    09:00 +22°C° 0 mm 1 m/s 754 mmHg 65%
    10:00 +24°C° 0 mm 1 m/s 754 mmHg 57%
    11:00 +24°C° 0.1 mm 1 m/s 754 mmHg 56%
    12:00 +25°C° 0.1 mm 1 m/s 754 mmHg 54%
    13:00 +25°C° 0.1 mm 2 m/s 754 mmHg 53%
    14:00 +25°C° 0.1 mm 2 m/s 753 mmHg 54%
    15:00 +25°C° 0.1 mm 2 m/s 753 mmHg 56%
    16:00 +25°C° 0.1 mm 2 m/s 753 mmHg 57%
    17:00 +24°C° 0.1 mm 2 m/s 753 mmHg 61%
    18:00 +24°C° 0.1 mm 1 m/s 753 mmHg 65%
    19:00 +23°C° 0.1 mm 1 m/s 753 mmHg 69%
    20:00 +22°C° 0 mm 1 m/s 753 mmHg 72%
    21:00 +19°C° 0 mm 2 m/s 753 mmHg 75%
    22:00 +18°C° 0 mm 2 m/s 754 mmHg 78%
    23:00 +18°C° 0.3 mm 2 m/s 754 mmHg 83%

    Demain, 19 Juillet, Vendredi

    Heure Température Précipitation Vent Pression Humidité
    00:00 +17°C° 0.3 mm 2 m/s 754 mmHg 88%
    01:00 +17°C° 0.3 mm 2 m/s 754 mmHg 92%
    02:00 +18°C° 0.1 mm 1 m/s 754 mmHg 93%
    03:00 +16°C° 0.1 mm 1 m/s 754 mmHg 93%
    04:00 +16°C° 0.1 mm 1 m/s 754 mmHg 94%
    05:00 +18°C° 0.1 mm 1 m/s 754 mmHg 92%
    06:00 +18°C° 0.1 mm 1 m/s 754 mmHg 91%
    07:00 +19°C° 0.1 mm 1 m/s 755 mmHg 90%
    08:00 +20°C° 0.3 mm 1 m/s 755 mmHg 84%
    09:00 +20°C° 0.3 mm 2 m/s 755 mmHg 79%
    10:00 +23°C° 0.3 mm 2 m/s 755 mmHg 74%
    11:00 +24°C° 0.5 mm 2 m/s 755 mmHg 70%
    12:00 +25°C° 0.5 mm 3 m/s 755 mmHg 66%
    13:00 +26°C° 0.5 mm 3 m/s 754 mmHg 62%
    14:00 +25°C° 0.6 mm 3 m/s 755 mmHg 64%
    15:00 +25°C° 0.6 mm 3 m/s 755 mmHg 66%
    16:00 +25°C° 0.6 mm 2 m/s 755 mmHg 68%
    17:00 +24°C° 0.4 mm 2 m/s 755 mmHg 71%
    18:00 +24°C° 0.4 mm 1 m/s 755 mmHg 75%
    19:00 +23°C° 0.4 mm 1 m/s 755 mmHg 78%
    20:00 +22°C° 0 mm 1 m/s 755 mmHg 82%
    21:00 +20°C° 0 mm 1 m/s 755 mmHg 86%
    22:00 +19°C° 0 mm 1 m/s 756 mmHg 90%
    23:00 +19°C° 0 mm 1 m/s 756 mmHg 91%

    Après-demain, 20 Juillet, Samedi

    Heure Température Précipitation Vent Pression Humidité
    00:00 +18°C° 0 mm 1 m/s 756 mmHg 92%
    01:00 +18°C° 0 mm 1 m/s 756 mmHg 93%
    02:00 +18°C° 0 mm 1 m/s 756 mmHg 93%
    03:00 +18°C° 0 mm 1 m/s 756 mmHg 93%
    04:00 +16°C° 0 mm 1 m/s 756 mmHg 93%
    05:00 +18°C° 0 mm 1 m/s 756 mmHg 91%
    06:00 +18°C° 0 mm 2 m/s 755 mmHg 89%
    07:00 +19°C° 0 mm 2 m/s 755 mmHg 86%
    08:00 +21°C° 0 mm 2 m/s 755 mmHg 78%
    09:00 +24°C° 0 mm 2 m/s 755 mmHg 69%
    10:00 +26°C° 0 mm 3 m/s 755 mmHg 60%
    11:00 +27°C° 0.1 mm 3 m/s 755 mmHg 58%
    12:00 +27°C° 0.1 mm 3 m/s 755 mmHg 57%
    13:00 +28°C° 0.1 mm 4 m/s 755 mmHg 55%
    14:00 +28°C° 0.5 mm 3 m/s 755 mmHg 57%
    15:00 +28°C° 0.5 mm 3 m/s 754 mmHg 59%
    16:00 +27°C° 0.5 mm 3 m/s 754 mmHg 61%
    17:00 +27°C° 0.2 mm 3 m/s 754 mmHg 66%
    18:00 +26°C° 0.2 mm 2 m/s 754 mmHg 71%
    19:00 +25°C° 0.2 mm 1 m/s 755 mmHg 76%
    20:00 +24°C° 0.5 mm 1 m/s 755 mmHg 79%
    21:00 +23°C° 0.5 mm 1 m/s 755 mmHg 82%
    22:00 +20°C° 0.5 mm 0 m/s 755 mmHg 86%
    23:00 +21°C° 0.7 mm 1 m/s 755 mmHg 88%

    21 Juillet, Dimanche

    Heure Température Précipitation Vent Pression Humidité
    00:00 +20°C° 0.7 mm 1 m/s 755 mmHg 90%
    01:00 +19°C° 0.7 mm 2 m/s 755 mmHg 92%
    02:00 +18°C° 0.2 mm 2 m/s 755 mmHg 93%
    03:00 +18°C° 0.2 mm 2 m/s 755 mmHg 94%
    04:00 +17°C° 0.2 mm 3 m/s 756 mmHg 95%
    05:00 +18°C° 0 mm 3 m/s 756 mmHg 93%
    06:00 +19°C° 0 mm 3 m/s 756 mmHg 91%
    07:00 +20°C° 0 mm 4 m/s 757 mmHg 89%
    08:00 +21°C° 0.1 mm 4 m/s 757 mmHg 81%
    09:00 +22°C° 0.1 mm 5 m/s 757 mmHg 74%
    10:00 +23°C° 0.1 mm 5 m/s 758 mmHg 67%
    11:00 +25°C° 0.1 mm 5 m/s 758 mmHg 64%
    12:00 +25°C° 0.1 mm 5 m/s 758 mmHg 61%
    13:00 +26°C° 0.1 mm 5 m/s 759 mmHg 58%
    14:00 +26°C° 0.2 mm 5 m/s 759 mmHg 59%
    15:00 +26°C° 0.2 mm 5 m/s 759 mmHg 60%
    16:00 +26°C° 0.2 mm 5 m/s 759 mmHg 61%
    17:00 +26°C° 0.1 mm 4 m/s 760 mmHg 65%
    18:00 +25°C° 0.1 mm 3 m/s 760 mmHg 70%
    19:00 +24°C° 0.1 mm 3 m/s 760 mmHg 74%
    20:00 +23°C° 0 mm 2 m/s 761 mmHg 80%
    21:00 +20°C° 0 mm 2 m/s 761 mmHg 86%
    22:00 +19°C° 0 mm 2 m/s 761 mmHg 92%
    23:00 +18°C° 0 mm 2 m/s 762 mmHg 93%

    22 Juillet, Lundi

    Heure Température Précipitation Vent Pression Humidité
    00:00 +17°C° 0 mm 2 m/s 762 mmHg 94%
    01:00 +17°C° 0 mm 2 m/s 762 mmHg 94%
    02:00 +16°C° 0 mm 1 m/s 762 mmHg 94%
    03:00 +15°C° 0 mm 1 m/s 762 mmHg 94%
    04:00 +14°C° 0 mm 0 m/s 762 mmHg 94%
    05:00 +16°C° 0 mm 1 m/s 762 mmHg 88%
    06:00 +18°C° 0 mm 1 m/s 763 mmHg 83%
    07:00 +19°C° 0 mm 1 m/s 763 mmHg 78%
    08:00 +21°C° 0 mm 1 m/s 763 mmHg 71%
    09:00 +21°C° 0 mm 0 m/s 763 mmHg 64%
    10:00 +23°C° 0 mm 0 m/s 763 mmHg 56%
    11:00 +24°C° 0 mm 0 m/s 763 mmHg 53%
    12:00 +27°C° 0 mm 1 m/s 763 mmHg 49%
    13:00 +28°C° 0 mm 1 m/s 763 mmHg 46%
    14:00 +28°C° 0 mm 1 m/s 763 mmHg 46%
    15:00 +28°C° 0 mm 1 m/s 762 mmHg 46%
    16:00 +28°C° 0 mm 1 m/s 762 mmHg 46%
    17:00 +27°C° 0 mm 2 m/s 762 mmHg 52%
    18:00 +26°C° 0 mm 2 m/s 762 mmHg 57%
    19:00 +25°C° 0 mm 2 m/s 762 mmHg 63%
    20:00 +23°C° 0 mm 2 m/s 762 mmHg 66%
    21:00 +21°C° 0 mm 3 m/s 762 mmHg 70%
    22:00 +19°C° 0 mm 3 m/s 763 mmHg 73%
    23:00 +18°C° 0 mm 3 m/s 763 mmHg 75%

    23 Juillet, Mardi

    Heure Température Précipitation Vent Pression Humidité
    00:00 +18°C° 0 mm 3 m/s 763 mmHg 78%
    01:00 +17°C° 0 mm 3 m/s 763 mmHg 80%
    02:00 +16°C° 0 mm 3 m/s 762 mmHg 81%
    03:00 +16°C° 0 mm 2 m/s 762 mmHg 82%
    04:00 +16°C° 0 mm 2 m/s 762 mmHg 82%
    05:00 +17°C° 0 mm 3 m/s 762 mmHg 80%
    06:00 +18°C° 0 mm 3 m/s 762 mmHg 77%
    07:00 +19°C° 0 mm 3 m/s 762 mmHg 74%
    08:00 +20°C° 0 mm 3 m/s 762 mmHg 69%
    09:00 +22°C° 0 mm 3 m/s 762 mmHg 64%
    10:00 +25°C° 0 mm 4 m/s 762 mmHg 59%
    11:00 +26°C° 0 mm 4 m/s 761 mmHg 54%
    12:00 +27°C° 0 mm 4 m/s 761 mmHg 50%
    13:00 +28°C° 0 mm 4 m/s 761 mmHg 46%
    14:00 +28°C° 0 mm 4 m/s 761 mmHg 44%
    15:00 +29°C° 0 mm 4 m/s 760 mmHg 42%
    16:00 +29°C° 0 mm 4 m/s 760 mmHg 41%
    17:00 +28°C° 0 mm 3 m/s 760 mmHg 46%
    18:00 +27°C° 0 mm 3 m/s 760 mmHg 52%
    19:00 +25°C° 0 mm 2 m/s 760 mmHg 58%
    20:00 +24°C° 0 mm 2 m/s 760 mmHg 62%
    21:00 +21°C° 0 mm 3 m/s 760 mmHg 66%
    22:00 +20°C° 0 mm 3 m/s 760 mmHg 71%
    23:00 +19°C° 0 mm 3 m/s 760 mmHg 76%
    Voir plus